TimeHST,TemperatureF,Dew PointF,Humidity,Sea Level PressureIn,VisibilityMPH,Wind Direction,Wind SpeedMPH,Gust SpeedMPH,PrecipitationIn,Events,Conditions,WindDirDegrees,DateUTC
12:56 AM,66.9,64.9,93,30.03,10.0,ENE,4.6,-,N/A,,Clear,70,2014-06-18 10:56:00
1:56 AM,66.9,64.9,93,30.03,10.0,NNE,4.6,-,N/A,,Clear,30,2014-06-18 11:56:00
2:56 AM,68.0,63.9,87,30.02,10.0,NNE,10.4,-,N/A,,Clear,30,2014-06-18 12:56:00
3:56 AM,68.0,65.8,93,30.00,10.0,NNE,8.1,-,N/A,,Clear,30,2014-06-18 13:56:00
4:56 AM,65.8,64.9,97,30.02,10.0,ENE,6.9,-,N/A,,Clear,70,2014-06-18 14:56:00
5:56 AM,65.8,64.9,97,30.03,10.0,ENE,6.9,-,N/A,,Unknown,60,2014-06-18 15:56:00
6:56 AM,68.0,64.9,90,30.05,10.0,ENE,5.8,-,N/A,,Clear,70,2014-06-18 16:56:00
7:56 AM,73.9,65.8,76,30.06,10.0,NE,8.1,-,N/A,,Clear,40,2014-06-18 17:56:00
8:56 AM,79.0,65.8,64,30.06,10.0,NNE,10.4,-,N/A,,Mostly Cloudy,30,2014-06-18 18:56:00
9:07 AM,78.8,64.4,61,30.13,10.0,NNE,10.4,-,N/A,,Scattered Clouds,20,2014-06-18 19:07:00
9:44 AM,78.8,62.6,57,30.13,10.0,Calm,Calm,-,N/A,,Mostly Cloudy,0,2014-06-18 19:44:00
9:56 AM,77.0,64.9,66,30.07,10.0,WSW,4.6,-,N/A,,Overcast,240,2014-06-18 19:56:00
10:56 AM,75.2,64.4,69,30.12,10.0,East,8.1,-,N/A,,Overcast,100,2014-06-18 20:56:00
11:56 AM,75.9,64.9,69,30.06,10.0,Variable,5.8,-,N/A,,Overcast,0,2014-06-18 21:56:00
12:56 PM,81.0,65.8,60,30.04,10.0,NE,21.9,-,N/A,,Scattered Clouds,40,2014-06-18 22:56:00
1:03 PM,80.6,64.4,58,30.10,10.0,NE,19.6,27.6,N/A,,Partly Cloudy,50,2014-06-18 23:03:00
1:56 PM,80.6,64.4,58,30.09,10.0,NE,25.3,33.4,N/A,,Scattered Clouds,40,2014-06-18 23:56:00
2:56 PM,81.0,63.9,56,30.01,10.0,ENE,18.4,33.4,N/A,,Clear,70,2014-06-19 00:56:00
3:56 PM,79.0,63.9,60,30.01,10.0,NE,23.0,32.2,N/A,,Clear,40,2014-06-19 01:56:00
4:56 PM,77.9,61.9,58,30.01,10.0,NE,19.6,32.2,N/A,,Clear,50,2014-06-19 02:56:00
5:56 PM,74.8,63.9,69,30.02,10.0,NNE,20.7,33.4,N/A,,Clear,30,2014-06-19 03:56:00
6:56 PM,72.0,61.9,70,30.04,10.0,ENE,17.3,28.8,N/A,,Clear,70,2014-06-19 04:56:00
7:56 PM,70.0,63.0,78,30.05,10.0,NE,15.0,24.2,N/A,,Clear,50,2014-06-19 05:56:00
8:56 PM,68.9,63.9,84,30.06,10.0,NE,15.0,-,N/A,,Clear,40,2014-06-19 06:56:00
9:56 PM,68.9,63.9,84,30.07,10.0,NE,12.7,-,N/A,,Clear,50,2014-06-19 07:56:00
10:56 PM,68.9,63.9,84,30.07,10.0,NE,17.3,20.7,N/A,,Clear,50,2014-06-19 08:56:00
11:56 PM,68.9,64.9,87,30.06,10.0,ENE,12.7,25.3,N/A,,Partly Cloudy,60,2014-06-19 09:56:00